Regional Weather Roundup
Issued by NWS Little Rock, AR

Home | Current Version | Previous Version | Text Only | Print | Product List | Glossary Off
Versions: 1 2 3 4 5 6 7 8 9 10 11 12 13 14 15 16 17 18 19 20 21 22 23 24 25 26 27 28 29 30 31

000
ASUS44 KLZK 271005
RWRLZK

WEATHER ROUNDUP FOR ARKANSAS
NATIONAL WEATHER SERVICE LITTLE ROCK AR
500 AM CDT TUE JUN 27 2017

NOTE: "FAIR" INDICATES FEW OR NO CLOUDS BELOW 12,000 FEET WITH NO
SIGNIFICANT WEATHER AND/OR OBSTRUCTIONS TO VISIBILITY.

ARZ001-003-010-029-271100-
NORTHWEST ARKANSAS

CITY           SKY/WX    TMP DP  RH WIND       PRES   REMARKS
FAYETTEVILLE   CLOUDY    63  60  90 CALM      30.11S
FORT SMITH     CLOUDY    66  62  87 NE3       30.08R
HARRISON       CLOUDY    61  59  93 SE6       30.14R
BENTONVILLE    CLOUDY    64  59  82 CALM      30.12R
ROGERS         CLOUDY    64  61  90 E3        30.12S
SILOAM SPGS    CLEAR     64  61  88 CALM      30.11R
HIGHFILL       CLOUDY    66  62  87 SE3       30.11S
$$

ARZ004-005-016-271100-
NORTH CENTRAL ARKANSAS

CITY           SKY/WX    TMP DP  RH WIND       PRES   REMARKS
BATESVILLE     CLOUDY    63  59  88 CALM      30.13R
FLIPPIN        CLOUDY    63  55  77 NE3       30.11R
MTN HOME       CLOUDY    61  59  93 CALM      30.13R
$$

ARZ040-041-271100-
WEST CENTRAL ARKANSAS

CITY           SKY/WX    TMP DP  RH WIND       PRES   REMARKS
MENA           CLOUDY    63  61  94 CALM      30.10F
MOUNT IDA      CLEAR     62  60  93 CALM      30.08R
$$

ARZ009-017-025-026-028-271100-
NORTHEAST ARKANSAS

CITY           SKY/WX    TMP DP  RH WIND       PRES   REMARKS
JONESBORO      LGT RAIN  65  64  97 NE10      30.11F
WALNUT RIDGE   CLOUDY    64  61  88 NE9G16    30.14R
BLYTHEVILLE    LGT RAIN  64  63  96 NE7       30.14S
$$

ARZ022-023-033-042-044-271100-
CENTRAL ARKANSAS

CITY           SKY/WX    TMP DP  RH WIND       PRES   REMARKS
LITTLE ROCK    PTCLDY    63  63 100 CALM      30.09R
N LITTLE ROCK    N/A     64  60  89 CALM      30.09R
CONWAY           N/A     64  63  94 NE6       30.08R
SEARCY         PTCLDY    64  62  93 N6        30.12R
HOT SPRINGS    CLOUDY    64  63  96 CALM      30.09R
RUSSELLVILLE   CLOUDY    64  63  96 CALM      30.09R
CLINTON        FAIR      63  61  94 CALM      30.12S
$$

ARZ036-271100-
EAST ARKANSAS

CITY           SKY/WX    TMP DP  RH WIND       PRES   REMARKS
WEST MEMPHIS   CLOUDY    67  63  87 N14       30.09R
$$

ARZ050-053-066-070-073-271100-
SOUTHWEST ARKANSAS

CITY           SKY/WX    TMP DP  RH WIND       PRES   REMARKS
ARKADELPHIA    FAIR      65  64  97 CALM      30.08R
CAMDEN         CLEAR     63  61  94 CALM      30.06R FOG
TEXARKANA      MOCLDY    66  66 100 NE3       30.07R
EL DORADO      CLEAR     65  63  93 CALM      30.06R
DE QUEEN       CLEAR     65  65 100 CALM      30.05S
$$

ARZ056-057-069-271100-
SOUTHEAST ARKANSAS

CITY           SKY/WX    TMP DP  RH WIND       PRES   REMARKS
PINE BLUFF     PTCLDY    64  63  96 CALM      30.07R
STUTTGART      PTCLDY   N/A N/A N/A N8        30.09R
MONTICELLO     CLEAR     64  62  93 CALM      30.06R

$$






USA.gov is the U.S. government's official web portal to all federal, state and local government web resources and services.